Location: Campo Alegre
(10.1673°N, 67.4431°W)
Time: 05:44:50
(UTC+00:00)

Cosmos 1943 - Visible Passes

Search period start: 16 July 2024 00:00
Search period end: 26 July 2024 00:00
Orbit: 834 x 847 km, 71.0° (Epoch: 15 July)

Date Brightness Start Highest point End Pass type
(mag) Time Alt. Az. Time Alt. Az. Time Alt. Az.
16 Jul 3.8 00:51:25 10° N 00:55:38 43° NE 00:55:38 43° NE visible
17 Jul 3.5 00:36:06 10° N 00:41:10 45° ENE 00:41:10 45° ENE visible
18 Jul 3.5 00:20:48 10° N 00:26:05 42° ENE 00:26:46 40° E visible
18 Jul 5.8 02:07:11 10° WNW 02:08:37 13° W 02:08:37 13° W visible
19 Jul 3.7 00:05:30 10° N 00:10:43 39° ENE 00:12:27 31° ESE visible
19 Jul 5.6 01:51:25 10° WNW 01:54:18 14° WSW 01:54:18 14° WSW visible
19 Jul 3.8 23:50:13 10° N 23:55:20 36° ENE 23:58:13 22° ESE visible
20 Jul 5.5 01:35:44 10° WNW 01:38:59 16° WSW 01:40:03 15° WSW visible
20 Jul 3.9 23:34:56 10° N 23:39:58 33° ENE 23:44:04 14° SE visible
21 Jul 5.5 01:20:05 10° WNW 01:23:38 17° WSW 01:25:55 14° SW visible
21 Jul 4.0 23:19:40 10° N 23:24:35 31° ENE 23:29:30 10° SE visible
22 Jul 5.5 01:04:28 10° WNW 01:08:16 19° WSW 01:11:51 11° SW visible
23 Jul 5.4 00:48:53 10° WNW 00:52:54 20° WSW 00:56:57 10° SSW visible
24 Jul 5.4 00:33:19 10° NW 00:37:33 22° WSW 00:41:47 10° SSW visible
25 Jul 5.3 00:17:47 10° NW 00:22:10 24° WSW 00:26:36 10° SSW visible
